AL-AMAL (HOPE) (45918 NORAD) Tracking and Keplerian Element Data

This shows tracking and keplerian element data for the satellite.

Feedback or suggestion? Click here.




ElementValue
Catalog45918
NameAL-AMAL (HOPE)
Epoch Orbit0
Epoch Day201.92332176
Epoch Year2020
RAAN309.5833
Inclination30.347
Eccentricity0.00075
Argument of Perigee293.9
Mean Anonmoly179.9
Mean Motion16.12219793
Decay Rate1.484E-05
L11 45918U 20047A 20201.92332176 .00001484 -46927-5 00000-0 0 9999
L22 45918 30.3470 309.5833 0007500 293.9000 179.9000 16.12219793 09

Live tracking and technical data element details for AL-AMAL (HOPE) (NORAD 45918). AL-AMAL (HOPE) can be tracked NOW for your location showing map with azimuth and elevation plus other details from your city location.

Track the satellite on the map from your city or location and see movement details for azimuth, elevation, latitude, longitude, range, height, and movement on the map or in text.







IsCatalogInMostPopularTable: catalog: 45918, numindb: 3
Update: records affected: 1



GetName: 45918 AL-AMAL (HOPE)

Hit Count: updated at: Fri, 14 Aug 2020 04:31:14 GMT